Flag for Ireland Weather past 2 weeks in Limerick, Ireland

Now
63 °F

Scattered clouds.


Feels Like: 63 °F
Forecast: 56 / 66 °F
Wind: 14 mph from Northwest

Location: Shannon Airport

Current Time: Jul 29, 2014 at 6:54:23 PM

Latest Report: Jul 29, 2014 at 6:00 PM


Visibility: N/A

Pressure: 30.15 "Hg

Humidity: 64%

Dew point: 50 °F

Location of LimerickLocation

Historic Weather in Limerick — Graph

°F

Limerick temperature yesterday

Maximum temperature yesterday: 70 °F (at 2:30 PM)
Minimum temperature yesterday: 57 °F (at 12:30 AM)
Average temperature yesterday: 62 °F

Past Weeks' High & Low Weather Summary

 TemperatureHumidityPressure
High81 °F (Jul 25, 4:00 PM)100% (Jul 19, 7:30 AM)30.18 "Hg (Jul 19, 7:30 AM)
Low55 °F (Jul 15, 4:30 AM)45% (Jul 25, 4:30 PM)29.68 "Hg (Jul 19, 4:00 PM)
Average65 °F79%30.04 "Hg
* Reported Jul 14 5:00 PM — Jul 29 5:30 PM, Limerick, Weather by CustomWeather, © 2014

Note: Actual official high and low records may vary slightly from our data, if they occured in-between our weather recording intervals... More about our weather records

Advertising

Limerick weather history for previous 24 hours

 ConditionsComfort  
Time TempWeatherWind HumidityBarometerVisibility
5:30 PM
Jul 29
64 °FScattered clouds.17 mph60%30.15 "HgN/A
5:00 PM66 °FBroken clouds.15 mph56%30.15 "HgN/A
4:30 PM66 °FBroken clouds.13 mph56%30.15 "HgN/A
4:00 PM66 °FBroken clouds.14 mph56%30.15 "HgN/A
3:30 PM66 °FBroken clouds.15 mph60%30.15 "HgN/A
3:00 PM66 °FBroken clouds.16 mph60%30.15 "HgN/A
2:30 PM66 °FBroken clouds.15 mph60%30.15 "HgN/A
2:00 PM64 °FMore clouds than sun.14 mph64%30.15 "HgN/A
1:30 PM64 °FBroken clouds.13 mph64%30.15 "HgN/A
1:00 PM64 °FBroken clouds.13 mph64%30.15 "HgN/A
12:30 PM63 °FBroken clouds.14 mph68%30.15 "HgN/A
12:00 PM63 °FPartly sunny.12 mph73%30.15 "HgN/A
11:30 AM63 °FPartly sunny.14 mph73%30.15 "HgN/A
11:00 AM61 °FPartly sunny.14 mph77%30.15 "HgN/A
10:30 AM61 °FPartly sunny.12 mph77%30.15 "HgN/A
10:00 AM59 °FMostly cloudy.12 mph88%30.15 "HgN/A
9:30 AM61 °FBroken clouds.12 mph77%30.15 "HgN/A
9:00 AM61 °FMostly cloudy.12 mph77%30.15 "HgN/A
8:30 AM59 °FBroken clouds.14 mph82%30.15 "HgN/A
8:00 AM59 °FBroken clouds.12 mph88%30.15 "HgN/A
7:30 AM59 °FBroken clouds.15 mph94%30.12 "HgN/A
7:00 AM61 °FBroken clouds.9 mph94%30.12 "HgN/A
6:30 AM61 °FPassing clouds.10 mph94%30.12 "Hg3 mi
6:00 AM63 °FPassing clouds.6 mph94%30.09 "Hg5 mi
5:30 AM63 °FPartly cloudy.7 mph94%30.09 "HgN/A
5:00 AM63 °FPartly cloudy.7 mph94%30.12 "HgN/A
4:30 AM61 °FPartly cloudy.8 mph100%30.12 "HgN/A
4:00 AM61 °FPartly cloudy.7 mph100%30.12 "HgN/A
3:30 AM61 °FPartly cloudy.6 mph100%30.12 "Hg3 mi
3:00 AM61 °FPartly cloudy.6 mph94%30.12 "Hg1 mi
2:30 AM61 °FPartly cloudy.9 mph94%30.12 "Hg1 mi
2:00 AM61 °FPassing clouds.6 mph88%30.15 "HgN/A
1:30 AM61 °FPassing clouds.7 mph88%30.15 "HgN/A
1:00 AM61 °FPassing clouds.7 mph83%30.15 "HgN/A
12:30 AM61 °FPassing clouds.8 mph83%30.15 "HgN/A
12:00 AM61 °FPartly cloudy.8 mph83%30.15 "HgN/A
11:30 PM
Jul 28
61 °FPartly cloudy.6 mph83%30.15 "HgN/A
11:00 PM61 °FPassing clouds.6 mph83%30.15 "HgN/A
10:30 PM61 °FPartly sunny.6 mph83%30.15 "HgN/A
10:00 PM61 °FPartly sunny.6 mph77%30.15 "HgN/A
9:30 PM63 °FBroken clouds.8 mph73%30.15 "HgN/A
9:00 PM63 °FPartly sunny.8 mph73%30.15 "HgN/A
8:30 PM63 °FScattered clouds.9 mph68%30.15 "HgN/A
8:00 PM64 °FPassing clouds.8 mph68%30.15 "HgN/A
7:30 PM66 °FScattered clouds.8 mph64%30.15 "HgN/A
7:00 PM64 °FPartly sunny.9 mph68%30.15 "HgN/A
6:30 PM64 °FPartly sunny.8 mph68%30.15 "HgN/A
6:00 PM64 °FBroken clouds.9 mph68%30.15 "HgN/A
Weather by CustomWeather, © 2014

See weather overviewHow to use our weather pages